Location: Goettingen
(51.5300°N, 9.9433°E)
Time: 19:39:21
(UTC+02:00)

ISS - Pass Details

Date: 14 July 2019
Orbit: 409 x 418 km, 51.6° (Epoch: 20 July)

Event Time Altitude Azimuth Distance (km) Brightness Sun altitude
Exits shadow 01:36:22 39° 225° (SW) 635 -3.2 -16.7°
Maximum altitude 01:37:22 62° 162° (SSE) 469 -3.9 -16.7°
Drops below altitude 10° 01:40:39 10° 81° (E) 1,482 -0.8 -16.6°
Sets 01:42:45 0° 78° (ENE) 2,344 0.3 -16.6°
